Total_Precipitation_Accumulation
2.03 1.77 1.46 0.98 0.85 1.29 1.21 1.10 1.60 0.93 1.10 0.93 0.67 0.96 1.11 1.32 0.43 0.79 0.64 0.67 0.87 0.79 0.54 0.57 0.46 0.59 0.36 0.60 0.94 0.65 0.99 0.75 1.04 0.56 0.51 0.45 0.43 0.44 0.72 0.62 0.55 0.77
1.57 1.16 0.82 1.20 1.73 1.59 1.14 1.60 1.51 1.16 1.07 1.13 0.86 0.66 1.15 1.02 0.90 0.52 0.28 0.81 1.03 0.96 0.61 0.62 0.79 0.78 0.80 1.02 1.01 1.43 1.27 0.99 0.93 0.59 0.68 0.52 0.51 0.53 0.55 0.60 0.37 0.66
1.74 1.56 0.93 0.72 0.80 0.74 0.80 0.88 1.18 1.07 0.95 1.14 0.64 0.62 0.74 0.56 1.08 0.46 0.51 0.54 0.46 0.61 0.70 0.81 1.18 0.98 0.74 0.57 0.90 1.10 1.38 1.12 1.04 0.70 0.54 0.26 0.27 0.36 0.45 0.28 0.57 0.30
1.00 0.96 0.63 0.93 1.10 1.25 1.23 1.29 1.44 0.62 1.16 0.86 0.86 0.89 0.82 0.77 0.68 0.70 1.30 0.74 0.46 0.40 0.56 0.82 0.67 0.92 0.75 0.74 0.95 0.65 0.86 1.09 0.55 0.70 0.68 0.53 0.47 0.39 0.45 0.54 0.41 0.39
0.71 0.93 1.00 1.34 1.41 1.15 1.40 1.47 1.11 1.08 1.03 1.15 1.33 0.77 0.67 0.30 0.42 0.70 0.67 0.44 0.62 0.87 1.13 0.86 0.59 0.79 0.91 1.03 0.82 0.55 0.67 0.55 0.41 0.34 0.48 0.43 0.71 0.55 0.44 0.40 0.51 0.24
1.95 1.88 1.80 1.38 0.84 0.88 0.79 1.04 0.88 1.27 1.40 0.93 0.82 0.81 0.56 0.48 0.61 0.82 0.47 0.53 0.78 0.36 0.42 0.43 0.53 0.52 0.84 1.06 0.77 0.80 0.60 0.37 0.33 0.43 0.32 0.28 0.50 0.32 0.29 0.51 0.49 0.26
2.21 1.86 1.56 1.85 1.29 0.76 0.81 0.82 1.13 1.07 1.08 1.00 1.19 1.64 0.60 0.71 0.75 0.83 0.54 0.60 0.69 0.49 0.57 0.50 0.58 0.44 0.50 0.83 0.77 0.47 0.58 0.34 0.39 0.66 0.54 0.33 0.34 0.32 0.29 0.57 0.51 0.42
1.70 1.94 1.76 1.45 1.71 2.09 1.01 0.87 0.78 0.79 0.84 1.18 0.61 1.27 1.14 0.73 0.43 0.73 0.51 0.53 0.55 0.60 0.63 0.76 0.56 0.48 0.60 0.64 0.45 0.58 0.45 0.38 0.34 0.43 0.34 0.45 0.34 0.24 0.48 0.67 0.76 0.47
1.63 1.77 1.10 1.30 1.43 1.85 1.81 1.22 0.63 0.92 0.96 1.10 0.93 1.09 0.96 0.68 0.79 0.84 0.94 0.89 0.95 0.92 0.88 0.68 0.74 1.18 1.19 1.17 1.06 0.80 0.77 0.37 0.27 0.48 0.63 0.50 0.42 0.32 0.36 0.85 0.83 0.78
0.73 1.35 1.80 1.55 1.67 1.54 1.62 1.34 1.18 1.11 1.05 1.49 2.74 2.46 1.61 1.22 1.85 2.76 2.21 1.78 1.17 0.88 0.73 0.81 1.09 0.94 0.99 1.03 0.80 0.76 0.59 0.42 0.32 0.45 0.42 0.37 0.29 0.33 0.51 1.17 1.14 0.96
1.34 1.81 2.68 2.09 2.03 1.78 1.71 1.33 1.37 0.99 1.06 0.95 1.51 1.33 1.72 2.01 1.88 2.79 2.76 1.88 1.37 0.59 0.42 0.72 1.21 0.80 0.56 0.49 0.47 0.43 0.78 0.40 0.36 0.37 0.36 0.31 0.27 0.35 0.58 0.84 0.88 1.60
2.16 2.24 2.05 2.61 1.77 1.37 1.62 1.33 1.28 1.42 1.49 0.97 1.63 1.43 1.52 1.66 1.83 2.05 1.31 0.99 0.66 0.54 0.67 0.50 0.85 0.80 0.91 0.76 0.69 0.38 0.60 0.57 0.39 0.37 0.22 0.20 0.45 0.36 0.43 0.75 0.91 1.15
1.80 1.45 1.43 1.53 1.10 1.47 1.51 1.42 1.38 1.38 1.36 1.54 1.84 1.80 1.53 1.60 1.26 1.57 1.07 0.57 0.79 0.65 0.80 0.76 0.78 0.94 0.78 0.57 0.65 0.59 0.53 0.46 0.46 0.40 0.59 0.46 0.71 0.75 0.98 1.22 1.01 0.90
2.38 1.88 2.08 1.89 2.10 1.73 1.64 1.32 1.28 1.58 1.44 1.69 2.03 2.14 1.35 0.88 1.18 0.89 0.83 1.01 1.11 1.08 1.04 1.53 1.66 1.43 0.89 0.86 0.68 0.67 0.77 0.50 0.51 0.74 0.64 0.61 0.71 0.97 0.98 1.23 1.55 1.39
2.28 2.18 2.07 2.02 3.16 2.89 2.52 1.67 1.23 1.31 1.83 1.77 1.87 1.94 1.52 1.38 1.09 0.84 0.55 0.84 0.84 0.82 0.97 1.96 2.98 1.78 1.97 1.20 0.96 0.86 0.89 1.65 1.56 0.82 0.94 0.76 0.75 0.64 0.87 0.94 0.97 1.18
1.79 1.87 2.01 1.64 1.48 1.57 2.60 2.59 1.79 2.11 1.77 1.77 2.07 1.89 1.37 0.94 1.25 1.10 1.03 0.79 0.84 0.90 0.98 1.11 1.12 0.92 0.97 1.13 0.88 1.16 1.85 1.93 0.86 0.74 1.03 0.97 1.26 1.05 1.15 1.43 1.11 1.12
1.91 1.68 1.76 2.15 1.77 2.16 2.77 3.41 3.59 2.99 3.09 2.34 1.77 1.49 1.21 1.33 1.68 1.17 1.47 0.91 0.76 0.72 0.56 0.89 0.98 0.95 0.44 0.35 0.33 0.57 2.32 2.38 1.28 1.26 1.19 1.38 1.22 0.95 1.02 1.08 0.98 1.05
1.62 1.35 1.49 2.04 2.57 3.15 3.53 2.83 3.42 2.46 1.86 1.64 1.92 2.15 1.94 1.94 2.26 1.87 1.62 1.90 1.81 1.42 1.25 1.22 1.91 1.19 0.66 0.75 0.57 0.62 1.68 2.21 1.89 1.32 1.15 1.01 0.76 0.61 0.61 0.89 1.61 1.80
2.74 2.51 2.87 2.50 2.48 2.83 2.55 2.27 2.46 2.32 2.02 2.24 2.68 2.46 2.29 2.60 2.25 1.84 2.05 2.63 2.94 2.85 2.18 1.17 1.46 1.59 1.26 0.71 0.36 0.86 1.66 1.85 1.68 1.32 1.32 1.30 0.90 0.82 0.95 0.87 1.85 1.57
2.99 3.33 3.00 2.78 2.85 2.34 1.61 1.24 1.52 1.79 2.18 2.02 2.66 3.30 2.27 2.32 1.83 1.47 1.63 1.85 1.52 1.86 1.58 2.01 1.54 1.04 0.45 0.36 0.27 0.44 1.12 1.15 2.27 2.01 1.52 1.26 1.61 1.70 1.59 1.81 2.55 2.22
3.65 4.28 4.93 4.44 3.78 3.27 3.02 1.95 1.80 1.81 2.20 2.52 2.62 2.82 3.06 2.46 2.48 1.64 1.85 2.42 2.79 2.17 1.30 1.70 1.36 0.85 0.60 0.44 0.47 0.44 0.75 1.19 1.65 1.27 1.16 1.31 1.22 1.54 2.22 3.33 2.02 1.69
4.26 4.48 4.60 4.52 4.17 4.70 3.16 3.28 3.44 3.08 2.66 2.69 2.48 2.94 1.61 2.43 3.02 2.48 2.03 2.48 2.79 2.15 2.61 1.54 1.76 1.00 0.77 0.47 0.56 1.07 0.97 1.36 1.37 1.68 2.12 1.77 1.82 2.00 2.54 3.50 2.65 1.75
5.31 5.48 5.22 4.65 4.90 4.63 4.71 3.97 4.34 4.28 3.44 3.19 2.63 2.37 2.47 2.26 2.51 2.58 2.59 2.35 2.39 2.20 2.37 1.96 1.53 1.06 0.87 0.75 0.90 2.81 1.46 1.14 1.34 1.24 1.94 1.71 1.88 1.93 2.59 2.69 1.98 2.26
5.35 4.80 4.97 5.54 6.16 5.56 4.86 4.34 3.20 3.52 3.61 3.41 4.00 3.61 3.15 2.31 2.77 2.82 3.25 2.71 1.94 2.15 2.20 1.77 1.30 1.14 1.20 1.05 1.09 1.15 0.89 1.14 1.90 1.92 2.54 2.63 2.55 2.41 3.03 2.04 1.96 1.87
5.76 5.22 5.90 4.44 3.92 4.29 4.32 4.24 3.46 3.29 3.30 4.02 4.03 3.32 3.52 3.77 3.57 2.95 3.34 3.32 3.79 3.40 2.14 2.21 2.42 2.22 1.11 1.03 1.53 1.23 1.24 1.32 1.48 1.78 2.15 3.15 2.54 2.72 2.61 1.92 1.68 2.01
3.28 3.56 4.06 4.16 4.21 4.13 3.84 4.37 3.98 4.61 4.39 3.44 3.12 3.37 3.11 3.59 3.52 3.41 4.27 3.99 3.00 3.36 2.86 2.84 3.61 3.02 1.99 1.30 1.50 1.06 1.15 1.64 1.63 1.61 2.11 3.43 3.64 3.90 3.83 3.06 1.68 2.27